Dewpoint
56 56 55 56 56 56 51 43 37 38 34 32 35 34 35 37 36 25 32 29 32 27 19 13 12 18 23 16 16 15 21 18 9 9 8 7 11 13 17 18 14 13 10 14
55 55 55 55 56 52 45 39 34 37 37 30 31 31 30 32 29 26 26 22 20 20 20 26 19 13 14 15 14 16 16 14 11 14 10 8 7 9 12 13 18 15 12 15
55 55 55 55 55 53 46 37 32 30 31 32 32 33 32 31 26 25 29 29 29 28 26 28 29 18 13 14 13 18 20 15 16 19 13 8 3 6 11 14 14 11 15 13
55 54 54 54 55 55 46 40 34 33 25 27 30 33 34 31 31 24 29 29 30 26 24 23 23 23 11 13 15 19 20 17 10 11 12 10 11 4 9 10 13 15 11 14
54 54 54 54 54 54 46 37 33 32 32 32 29 33 32 32 34 27 26 27 28 28 29 27 24 17 15 16 14 18 21 17 8 9 11 13 12 13 8 9 12 15 16 15
53 53 53 53 53 53 43 38 37 37 34 30 29 30 32 33 34 31 28 28 28 25 27 27 27 28 27 26 19 19 20 15 13 13 8 9 6 4 10 5 -8 8 11 5
52 51 52 52 53 52 46 40 38 34 32 31 29 28 30 28 29 30 22 26 27 24 29 28 26 23 21 20 17 21 18 16 16 9 8 1 -3 -4 0 -1 -10 -15 -4 -7
52 52 52 52 52 52 42 36 37 33 25 15 19 15 22 24 22 19 20 21 23 29 26 21 17 14 15 10 10 13 17 18 11 8 5 6 -7 -6 -6 -7 -7 -16 -11 -11
46 47 48 51 53 45 32 24 28 32 21 7 6 10 17 19 18 18 19 24 26 26 23 20 14 11 10 6 2 5 15 15 13 8 3 1 -6 -4 -9 -11 -7 -10 -9 -8
43 43 43 48 45 38 28 22 25 19 6 7 8 7 8 13 18 16 18 19 21 24 19 15 13 9 10 7 3 -0 5 8 5 6 5 5 1 -1 -6 -5 -6 -4 -7 -8
41 40 39 37 35 32 24 20 24 16 8 8 10 10 6 9 11 14 16 17 17 18 14 14 10 9 5 5 2 2 4 3 2 2 -1 -1 1 -3 -5 -3 -8 -6 -4 -4
39 39 39 38 36 31 25 17 22 19 13 10 16 15 15 14 13 11 17 15 14 13 12 11 12 7 6 3 0 -1 1 -2 -0 -0 -0 -2 -1 -1 -3 -9 -9 -6 -6 -4
37 37 36 35 33 30 24 21 22 20 12 10 8 7 14 11 17 20 14 15 16 13 13 12 9 -0 3 2 -1 -2 -6 -10 -6 -6 -4 -4 -4 -2 -2 -5 -5 -3 -3 -4
31 33 33 32 31 30 25 21 24 18 12 4 6 6 4 8 9 11 15 16 11 10 9 6 4 -0 0 -3 -4 -5 -7 -8 -13 -10 -6 -4 -8 -4 -3 -4 -4 -5 -5 -6
31 29 26 26 25 24 16 14 17 19 15 5 6 10 1 -1 7 7 8 9 8 5 1 -2 -6 -2 -4 -8 -7 -11 -10 -10 -7 -5 -0 -1 -2 -1 -6 -4 -3 -1 -1 0
25 26 26 26 23 21 16 14 14 13 16 10 -1 0 -3 -5 4 1 2 2 3 0 -5 -11 -11 -12 -9 -15 -14 -10 -10 -8 -7 -1 -11 -10 -5 -5 -6 -5 -1 1 2 3
24 24 23 23 22 12 11 10 13 16 21 8 1 -2 -5 -8 2 0 -1 0 -1 -4 -12 -14 -15 -12 -10 -15 -11 0 -5 -7 -8 -6 -9 -3 -7 3 6 4 2 5 1 1
19 20 22 21 19 16 10 14 13 7 0 -1 -7 -8 -8 -7 -7 -8 -4 -6 -6 -8 -20 -17 -18 -14 -16 -7 0 -7 -6 0 -1 -1 1 -0 3 3 3 3 4 3 2 2
16 11 10 -1 -1 6 9 12 8 3 -4 -13 -13 -18 -18 -8 -9 -10 -10 -9 -11 -6 -15 -18 -10 -16 -4 3 2 2 5 3 3 6 6 4 4 5 5 5 5 4 4 5
10 -1 -10 -2 -12 15 5 -3 -3 -5 -4 -5 -14 -9 -15 -9 -10 -12 -16 -17 -18 -23 -18 -11 -17 -18 -5 -1 2 3 5 4 4 2 1 2 2 3 1 2 3 4 5 6
-4 -4 -6 -9 9 -4 -5 -6 -9 -9 -15 -8 -9 -11 -16 -7 -17 -22 -22 -26 -22 -25 -17 -18 -20 -7 3 5 -0 2 1 2 2 3 3 5 2 1 2 2 4 3 3 3
4 -1 0 1 -0 -1 -8 -14 -11 -15 -17 -10 -14 -9 -9 -8 -9 -19 -21 -25 -22 -27 -16 -18 -13 -5 5 5 0 -1 1 2 3 3 2 -1 0 2 2 3 -4 -4 0 -1
2 1 -5 -2 -7 -11 -17 -18 -13 -15 -11 -10 -10 -14 -9 -9 -8 -25 -23 -19 -24 -15 -19 -20 -15 4 4 4 0 1 2 2 1 -1 -1 -1 0 2 2 -0 -4 -3 -0 -1
-1 -5 -9 -11 -12 -13 -18 -15 -13 -9 -9 -7 -8 -18 -13 -10 -18 -23 -20 -18 -19 -19 -19 -13 3 4 3 4 1 2 1 2 -1 -1 -1 -1 -1 0 -0 -1 -3 -3 -2 0
-8 -4 -12 -8 -5 -6 -7 -5 -6 -4 -2 -5 -13 -15 -12 -17 -18 -12 -13 -12 -18 -12 -10 2 4 4 4 3 1 2 0 -0 -3 -2 -1 -1 -0 -2 -2 -1 -3 -3 -1 -1
-4 -8 -11 -5 -8 -7 -10 -7 -7 -1 -3 -6 -10 -21 -15 -15 -21 -12 -22 -17 -18 -2 4 5 5 3 4 3 1 3 1 -0 -3 -2 -1 -1 1 -4 -3 -1 -4 -3 1 -4
-6 -8 -3 -6 -7 -6 -6 -3 -3 0 -7 -14 -17 -9 -15 -13 -14 -15 -11 -8 3 5 4 5 4 3 4 1 1 2 1 0 -2 -2 -2 -0 1 -5 -5 -4 -5 -2 -1 -4
Lifted_Index
4 4 3 2 1 0 0 1 2 4 5 3 2 2 2 2 2 2 2 2 2 3 3 3 3 3 2 2 2 2 2 2 2 3 4 4 3 3 2 2 2 1 2 2
3 3 3 2 0 -0 0 1 2 4 4 3 2 2 2 2 2 2 2 2 2 2 2 2 2 2 2 2 2 2 2 2 2 2 3 3 3 3 3 2 2 2 2 2
3 3 3 2 0 -0 0 1 1 3 3 2 2 2 2 2 2 2 2 2 2 2 2 2 2 2 2 2 2 3 3 2 2 2 2 3 3 3 3 3 2 2 2 2
3 3 3 2 0 -0 -0 0 1 2 2 2 2 2 2 2 2 2 2 2 2 2 1 1 1 1 2 2 3 3 3 2 2 2 2 3 3 3 3 3 3 3 3 4
4 3 3 2 1 -0 -0 0 1 2 2 2 2 2 2 2 2 2 2 2 2 1 1 1 2 2 2 2 3 3 3 2 2 2 3 3 3 3 4 4 5 5 5 5
4 4 4 3 2 1 0 1 2 2 2 2 2 2 2 2 2 2 3 2 2 2 3 3 3 3 3 3 3 3 3 3 2 2 2 2 3 4 5 6 7 7 7 8
5 4 4 3 3 2 1 2 2 2 2 2 2 2 2 2 2 2 3 3 4 5 5 5 4 4 4 4 4 5 4 3 3 2 2 3 4 7 8 8 9 10 10 10
5 4 4 4 3 3 2 2 2 2 2 2 2 2 2 2 2 2 3 5 7 7 6 4 3 3 3 3 5 6 7 5 4 3 2 3 6 9 10 9 10 11 12 12
5 5 4 4 4 3 3 2 2 3 3 3 3 3 3 3 3 3 4 7 9 8 6 3 2 2 2 3 4 6 7 7 5 4 3 5 8 11 12 10 10 12 13 13
6 6 5 5 4 3 3 3 4 3 3 4 6 5 5 5 4 4 5 7 9 8 5 3 3 3 4 4 5 6 7 6 6 5 5 6 10 12 12 11 11 13 15 15
8 8 7 7 6 5 4 5 6 6 5 8 12 12 10 9 8 7 7 8 8 8 6 5 5 5 6 6 6 7 7 7 7 7 7 9 12 13 12 12 13 15 16 16
11 10 10 9 8 8 7 7 9 9 8 12 16 18 17 16 14 12 11 10 10 10 9 9 8 8 8 8 8 9 10 10 10 10 10 11 13 13 13 14 15 15 15 15
13 12 12 11 10 10 9 9 11 11 10 13 17 19 20 20 19 17 15 14 14 13 13 12 10 10 10 10 10 11 13 13 12 12 12 12 13 13 13 13 14 14 14 14
15 15 14 14 13 13 12 12 13 12 11 11 15 19 21 21 21 19 17 16 16 15 14 13 12 12 12 12 12 13 13 13 12 11 11 12 12 12 12 12 12 12 13 13
17 17 17 16 16 15 14 14 15 14 12 11 14 19 21 22 21 20 19 18 17 16 15 14 13 13 13 12 12 12 13 12 11 10 11 11 11 12 12 12 12 12 12 12
18 18 17 17 16 16 15 15 16 17 15 12 13 18 20 21 20 19 18 17 16 15 14 13 12 12 12 11 11 11 12 11 11 11 11 12 12 12 12 12 12 12 13 13
18 17 17 16 16 15 15 15 17 18 17 14 13 15 18 18 17 16 15 15 14 13 11 11 10 10 10 10 10 10 11 11 11 11 12 12 12 12 13 13 13 13 13 13
17 16 16 15 15 14 14 16 17 17 15 13 12 12 13 15 14 13 12 12 11 10 9 9 9 9 9 9 10 10 11 11 12 12 12 12 13 13 13 13 14 14 14 14
15 14 13 12 12 13 13 14 15 14 13 11 10 9 10 11 11 10 10 9 8 8 8 8 8 8 8 9 10 10 11 12 12 12 12 13 13 13 14 14 14 14 14 14
12 11 10 10 11 12 12 11 11 10 11 10 10 9 9 9 9 8 8 7 6 6 6 7 7 7 8 10 10 11 11 12 12 12 12 13 13 13 14 14 14 14 14 14
10 9 9 10 11 10 9 9 9 9 9 10 9 9 9 9 8 7 7 6 6 5 6 6 6 7 9 10 11 11 12 12 12 12 12 12 12 13 13 13 13 13 13 13
9 9 10 10 9 8 8 8 8 8 8 8 9 8 9 10 9 8 7 6 6 6 6 6 7 8 10 10 11 12 12 12 12 12 11 11 12 12 12 12 12 12 12 12
9 9 9 9 9 8 7 7 7 7 8 8 9 9 9 10 9 8 7 7 6 6 6 7 8 10 10 11 12 12 12 11 11 11 11 11 11 11 12 12 12 12 12 13
10 9 9 9 9 8 8 8 8 8 9 9 9 9 9 9 9 8 7 7 7 6 7 8 9 11 11 12 12 12 11 11 11 11 11 11 11 12 12 12 13 13 13 13
11 10 9 9 9 9 9 8 9 9 9 9 9 9 9 9 9 8 8 7 7 7 8 9 10 11 12 12 12 12 12 12 12 12 12 12 12 12 12 13 13 13 13 13
12 11 10 9 9 9 9 9 9 10 10 9 9 9 9 8 8 8 8 7 7 8 10 11 12 12 13 13 13 12 12 12 13 13 13 13 13 13 13 13 13 14 14 14
12 11 10 10 9 8 8 9 9 10 10 9 9 8 8 8 8 8 8 8 9 10 11 12 13 13 13 13 13 13 13 13 13 13 13 13 14 14 13 13 13 14 14 14